This is the latest recevied weather packets stored in our database for station/object GW4003. If no packets are shown the sender has not sent any weather packets the latest 1 day(s).
| Time | Temp. | Humidity | Pressure | Rain* | Wind** | Luminosity | Snow |
|---|---|---|---|---|---|---|---|
| 1778020074 | 2.78° C | 88% | 1013.4 hPa | 0.76 mm | 0.45 m/s, 148° | - | - |
| 1778019770 | 2.78° C | 88% | 1013.5 hPa | 0.76 mm | 2.24 m/s, 29° | - | - |
| 1778019466 | 3.33° C | 88% | 1013.5 hPa | 0.76 mm | 1.34 m/s, 350° | - | - |
| 1778019163 | 3.33° C | 88% | 1013.6 hPa | 0.76 mm | 1.79 m/s, 236° | - | - |
| 1778018860 | 3.33° C | 88% | 1013.6 hPa | 0.51 mm | 1.34 m/s, 332° | - | - |
| 1778018557 | 3.33° C | 88% | 1013.5 hPa | 0.51 mm | 2.68 m/s, 269° | - | - |
| 1778018253 | 3.33° C | 87% | 1013.2 hPa | 0.51 mm | 1.79 m/s, 352° | - | - |
| 1778017950 | 3.33° C | 87% | 1013.2 hPa | 0.51 mm | 4.02 m/s, 5° | - | - |
| 1778017647 | 3.89° C | 87% | 1013.2 hPa | 0.25 mm | 1.34 m/s, 337° | - | - |
| 1778017344 | 4.44° C | 88% | 1013.3 hPa | 0 mm | 1.79 m/s, 351° | - | - |
| 1778017041 | 4.44° C | 88% | 1013.3 hPa | 0 mm | 0.45 m/s, 232° | - | - |
| 1778016738 | 4.44° C | 88% | 1013.3 hPa | 0.25 mm | 1.79 m/s, 309° | - | - |
| 1778016436 | 4.44° C | 88% | 1013.4 hPa | 0.25 mm | 0.89 m/s, 18° | - | - |
| 1778016133 | 4.44° C | 88% | 1013.3 hPa | 0.51 mm | 0.45 m/s, 352° | - | - |
| 1778015830 | 4.44° C | 88% | 1013.4 hPa | 0.51 mm | 0.89 m/s, 286° | - | - |
| 1778015527 | 3.89° C | 88% | 1013.4 hPa | 0.51 mm | 1.34 m/s, 284° | - | - |
| 1778015225 | 3.89° C | 88% | 1013.3 hPa | 0.51 mm | 0.89 m/s, 340° | - | - |
| 1778014922 | 3.89° C | 88% | 1013.5 hPa | 0.51 mm | 4.47 m/s, 48° | - | - |
| 1778014618 | 3.89° C | 88% | 1013.6 hPa | 0.76 mm | 1.79 m/s, 5° | - | - |
| 1778014315 | 4.44° C | 88% | 1013.7 hPa | 0.76 mm | 1.34 m/s, 15° | - | - |
| 1778014012 | 4.44° C | 88% | 1013.9 hPa | 0.76 mm | 2.24 m/s, 9° | - | - |
| 1778013709 | 4.44° C | 88% | 1013.9 hPa | 0.76 mm | 0 m/s | - | - |
| 1778013405 | 4.44° C | 88% | 1014 hPa | 0.76 mm | 1.34 m/s, 48° | - | - |
| 1778013102 | 4.44° C | 88% | 1014.2 hPa | 0.51 mm | 1.79 m/s, 352° | - | - |
| 1778012799 | 4.44° C | 88% | 1014.2 hPa | 0.51 mm | 0.89 m/s, 332° | - | - |
* Rain latest hour (hover to see other rain measurements)
** Current wind speed in m/s (hover to see current wind gust speed)